TimeMST,TemperatureF,Dew PointF,Humidity,Sea Level PressureIn,VisibilityMPH,Wind Direction,Wind SpeedMPH,Gust SpeedMPH,PrecipitationIn,Events,Conditions,WindDirDegrees,DateUTC
12:53 AM,28.0,19.0,69,30.02,10.0,WNW,3.5,-,N/A,,Clear,290,2012-11-30 07:53:00
1:53 AM,28.0,19.0,69,30.02,10.0,WNW,8.1,-,N/A,,Clear,290,2012-11-30 08:53:00
2:53 AM,28.0,19.0,69,30.03,10.0,West,3.5,-,N/A,,Clear,280,2012-11-30 09:53:00
3:53 AM,28.0,21.0,75,30.03,10.0,WSW,9.2,-,N/A,,Clear,250,2012-11-30 10:53:00
4:53 AM,28.9,21.0,72,30.05,10.0,SW,10.4,-,N/A,,Clear,230,2012-11-30 11:53:00
5:53 AM,34.0,23.0,64,30.03,10.0,SW,11.5,-,N/A,,Clear,220,2012-11-30 12:53:00
6:53 AM,34.0,23.0,64,30.08,10.0,SW,12.7,-,N/A,,Clear,230,2012-11-30 13:53:00
7:53 AM,33.1,23.0,66,30.11,10.0,WSW,10.4,-,N/A,,Clear,240,2012-11-30 14:53:00
8:53 AM,46.0,26.1,46,30.07,10.0,WSW,5.8,-,N/A,,Clear,250,2012-11-30 15:53:00
9:53 AM,55.0,24.1,30,30.02,10.0,SSW,20.7,24.2,N/A,,Clear,200,2012-11-30 16:53:00
10:53 AM,57.9,24.1,27,29.99,10.0,SSW,16.1,-,N/A,,Clear,200,2012-11-30 17:53:00
11:53 AM,59.0,24.1,26,29.94,10.0,South,12.7,-,N/A,,Clear,180,2012-11-30 18:53:00
12:53 PM,60.1,19.9,21,29.90,10.0,South,13.8,-,N/A,,Clear,180,2012-11-30 19:53:00
1:53 PM,61.0,19.0,20,29.87,10.0,South,10.4,-,N/A,,Clear,190,2012-11-30 20:53:00
2:53 PM,59.0,19.9,22,29.87,10.0,SSW,6.9,-,N/A,,Clear,200,2012-11-30 21:53:00
3:53 PM,48.9,21.0,33,29.89,10.0,South,11.5,-,N/A,,Clear,180,2012-11-30 22:53:00
6:53 PM,37.0,17.1,44,29.89,10.0,Calm,Calm,-,N/A,,Clear,0,2012-12-01 01:53:00
7:53 PM,34.0,17.1,50,29.91,10.0,SW,4.6,-,N/A,,Clear,220,2012-12-01 02:53:00
8:53 PM,30.9,18.0,59,29.86,10.0,SSW,5.8,-,N/A,,Clear,200,2012-12-01 03:53:00
9:53 PM,37.9,19.0,47,29.81,10.0,SSW,6.9,-,N/A,,Clear,210,2012-12-01 04:53:00
10:53 PM,35.1,19.0,52,29.79,10.0,West,6.9,-,N/A,,Clear,280,2012-12-01 05:53:00